FLOCK 4V-14 (46286 NORAD) Tracking and Keplerian Element Data

This shows tracking and keplerian element data for the satellite.

Feedback or suggestion? Click here.




ElementValue
Catalog46286
NameFLOCK 4V-14
Epoch Orbit325
Epoch Day268.8150961
Epoch Year2020
RAAN341.5415
Inclination97.5177
Eccentricity0.0001966
Argument of Perigee265.8639
Mean Anonmoly94.2366
Mean Motion15.09909331
Decay Rate5.83E-06
L11 46286U 20061Q 20268.81509610 .00000583 00000-0 39849-4 0 9996
L22 46286 97.5177 341.5415 0001966 265.8639 94.2366 15.09909331 3258

Live tracking and technical data element details for FLOCK 4V-14 (NORAD 46286). FLOCK 4V-14 can be tracked NOW for your location showing map with azimuth and elevation plus other details from your city location.

Track the satellite on the map from your city or location and see movement details for azimuth, elevation, latitude, longitude, range, height, and movement on the map or in text.







IsCatalogInMostPopularTable: catalog: 46286, numindb: 1
Update: records affected: 1



GetName: 46286 FLOCK 4V-14

Hit Count: updated at: Sat, 26 Sep 2020 14:21:21 GMT